Location: Boca do Mato
(22.9085°S, 43.2930°W)
Time: 13:26:41
(UTC+00:00)

Cosmos 1025 Rocket - Visible Passes

Search period start: 27 October 2020 00:00
Search period end: 06 November 2020 00:00
Orbit: 595 x 617 km, 82.5° (Epoch: 26 October)

Date Brightness Start Highest point End Pass type
(mag) Time Alt. Az. Time Alt. Az. Time Alt. Az.
27 Oct 5.3 05:39:15 10° S 05:40:43 20° SSE 05:40:43 20° SSE visible
28 Oct 5.4 05:52:24 10° S 05:53:17 16° S 05:53:17 16° S visible
29 Oct 5.7 06:05:53 10° SSW 06:05:56 10° SSW 06:05:56 10° SSW visible
